| time (UTC) | temp F | wind direction | speed MPH | gust MPH | rain 1hr in | rain 24hr in | rain mn in | humidity % | barometer mb |
| 20260510001549 | 45 | 340 | 6.0 | 10.0 | 0.00 | 0.00 | 0.00 | 45 | 1008.0 |
| 20260510000052 | 46 | 338 | 4.0 | 10.0 | 0.00 | 0.00 | 0.00 | 43 | 1007.7 |
| 20260509234551 | 46 | 355 | 5.0 | 13.0 | 0.00 | 0.00 | 0.00 | 42 | 1007.2 |
| 20260509233036 | 47 | 347 | 7.0 | 15.0 | 0.00 | 0.00 | 0.00 | 43 | 1007.0 |
| 20260509231531 | 47 | 338 | 4.0 | 7.0 | 0.00 | 0.00 | 0.00 | 43 | 1007.0 |
| 20260509230015 | 47 | 332 | 4.0 | 9.0 | 0.00 | 0.00 | 0.00 | 42 | 1006.7 |
| 20260509224511 | 47 | 333 | 6.0 | 11.0 | 0.00 | 0.00 | 0.00 | 40 | 1006.4 |
| 20260509223006 | 47 | 330 | 4.0 | 7.0 | 0.00 | 0.00 | 0.00 | 33 | 1006.1 |
| 20260509221502 | 47 | 330 | 5.0 | 8.0 | 0.00 | 0.00 | 0.00 | 34 | 1005.7 |
| 20260509220104 | 47 | 329 | 5.0 | 11.0 | 0.00 | 0.00 | 0.00 | 39 | 1005.3 |
| 20260509214554 | 47 | 329 | 3.0 | 8.0 | 0.00 | 0.00 | 0.00 | 46 | 1004.9 |
| 20260509213049 | 47 | 316 | 0.0 | 4.0 | 0.00 | 0.00 | 0.00 | 43 | 1004.6 |
| 20260509211546 | 47 | 299 | 1.0 | 5.0 | 0.00 | 0.00 | 0.00 | 41 | 1004.3 |
| 20260509210031 | 47 | 300 | 2.0 | 7.0 | 0.00 | 0.00 | 0.00 | 46 | 1003.9 |
| 20260509204529 | 48 | 304 | 0.0 | 4.0 | 0.00 | 0.00 | 0.00 | 50 | 1003.6 |
| 20260509203020 | 48 | 288 | 2.0 | 5.0 | 0.00 | 0.00 | 0.00 | 49 | 1003.5 |
| 20260509201516 | 47 | 302 | 2.0 | 7.0 | 0.00 | 0.00 | 0.00 | 46 | 1003.4 |
| 20260509200012 | 47 | 296 | 4.0 | 7.0 | 0.00 | 0.00 | 0.00 | 45 | 1003.0 |
| 20260509194508 | 47 | 298 | 0.0 | 0.0 | 0.00 | 0.00 | 0.00 | 42 | 1002.7 |
| 20260509193003 | 48 | 340 | 0.0 | 17.0 | 0.00 | 0.00 | 0.00 | 48 | 1002.5 |
| 20260509191611 | 44 | 323 | 0.0 | 4.0 | 0.00 | 0.00 | 0.00 | 31 | 1002.3 |
| 20260509190044 | 46 | 253 | 1.0 | 5.0 | 0.00 | 0.00 | 0.00 | 40 | 1002.0 |
| 20260509184539 | 46 | 251 | 0.0 | 6.0 | 0.00 | 0.00 | 0.00 | 39 | 1001.6 |
| 20260509183033 | 47 | 225 | 3.0 | 8.0 | 0.00 | 0.00 | 0.00 | 45 | 1001.4 |
| 20260509181529 | 47 | 260 | 4.0 | 9.0 | 0.00 | 0.00 | 0.00 | 43 | 1001.2 |
| 20260509180024 | 46 | 250 | 1.0 | 6.0 | 0.00 | 0.00 | 0.00 | 20 | 1001.0 |
| 20260509174520 | 44 | 254 | 0.0 | 6.0 | 0.00 | 0.00 | 0.00 | 100 | 1000.7 |
| 20260509173015 | 43 | 234 | 2.0 | 7.0 | 0.00 | 0.00 | 0.00 | 100 | 1000.7 |
| 20260509171513 | 44 | 236 | 1.0 | 8.0 | 0.00 | 0.00 | 0.00 | 100 | 1000.4 |
| 20260509170055 | 44 | 263 | 2.0 | 9.0 | 0.00 | 0.00 | 0.00 | 8 | 1000.2 |
| 20260509164550 | 45 | 213 | 1.0 | 9.0 | 0.00 | 0.00 | 0.00 | 23 | 1000.1 |
| 20260509163047 | 46 | 132 | 2.0 | 11.0 | 0.00 | 0.00 | 0.00 | 30 | 1000.0 |
| 20260509161542 | 46 | 171 | 3.0 | 9.0 | 0.00 | 0.00 | 0.00 | 24 | 999.9 |
| 20260509160038 | 45 | 259 | 2.0 | 9.0 | 0.00 | 0.00 | 0.00 | 100 | 999.8 |
| 20260509154535 | 44 | 240 | 1.0 | 8.0 | 0.00 | 0.00 | 0.00 | 100 | 999.5 |
| 20260509153033 | 45 | 265 | 0.0 | 5.0 | 0.00 | 0.00 | 0.00 | 100 | 999.1 |
| 20260509151526 | 45 | 238 | 0.0 | 5.0 | 0.00 | 0.00 | 0.00 | 100 | 999.1 |
| 20260509150015 | 44 | 180 | 0.0 | 7.0 | 0.00 | 0.00 | 0.00 | 100 | 998.9 |
| 20260509144512 | 44 | 230 | 0.0 | 5.0 | 0.00 | 0.00 | 0.00 | 100 | 998.5 |
| 20260509143102 | 44 | 232 | 0.0 | 5.0 | 0.00 | 0.00 | 0.00 | 100 | 998.3 |
| 20260509141556 | 44 | 239 | 0.0 | 7.0 | 0.00 | 0.00 | 0.00 | 100 | 998.2 |
| 20260509140105 | 44 | 211 | 1.0 | 12.0 | 0.00 | 0.00 | 0.00 | 100 | 998.3 |
| 20260509134551 | 45 | 252 | 1.0 | 10.0 | 0.00 | 0.00 | 0.00 | 100 | 997.7 |
| 20260509133042 | 45 | 196 | 2.0 | 7.0 | 0.00 | 0.00 | 0.00 | 100 | 997.7 |
| 20260509131549 | 45 | 261 | 2.0 | 5.0 | 0.00 | 0.00 | 0.00 | 100 | 997.8 |
| 20260509130024 | 46 | 159 | 0.0 | 9.0 | 0.00 | 0.00 | 0.00 | 100 | 997.8 |
| 20260509124521 | 45 | 209 | 0.0 | 4.0 | 0.00 | 0.00 | 0.00 | 100 | 997.7 |
| 20260509123051 | 45 | 198 | 0.0 | 5.0 | 0.00 | 0.00 | 0.00 | 100 | 997.9 |
| 20260509121558 | 46 | 219 | 0.0 | 12.0 | 0.00 | 0.00 | 0.00 | 7 | 998.3 |
| 20260509120035 | 48 | 136 | 0.0 | 2.0 | 0.00 | 0.00 | 0.00 | 34 | 997.6 |
| 20260509114532 | 48 | 189 | 0.0 | 5.0 | 0.00 | 0.00 | 0.00 | 35 | 997.5 |
| 20260509113024 | 48 | 113 | 0.0 | 5.0 | 0.00 | 0.00 | 0.00 | 39 | 997.5 |
| 20260509111521 | 47 | 122 | 0.0 | 5.0 | 0.00 | 0.00 | 0.00 | 42 | 997.7 |
| 20260509110016 | 47 | 237 | 0.0 | 3.0 | 0.00 | 0.00 | 0.00 | 46 | 997.5 |
| 20260509104511 | 47 | 214 | 0.0 | 5.0 | 0.00 | 0.00 | 0.00 | 50 | 997.5 |
| 20260509103006 | 48 | 166 | 0.0 | 8.0 | 0.00 | 0.00 | 0.00 | 53 | 997.5 |
| 20260509101502 | 49 | 192 | 0.0 | 4.0 | 0.00 | 0.00 | 0.00 | 53 | 997.8 |
| 20260509100100 | 50 | 234 | 0.0 | 6.0 | 0.00 | 0.00 | 0.00 | 53 | 998.0 |
| 20260509094537 | 51 | 132 | 0.0 | 9.0 | 0.00 | 0.00 | 0.00 | 52 | 998.1 |
| 20260509093033 | 50 | 196 | 0.0 | 7.0 | 0.00 | 0.00 | 0.00 | 52 | 998.3 |
| 20260509091515 | 49 | 105 | 0.0 | 5.0 | 0.00 | 0.00 | 0.00 | 52 | 998.4 |
| 20260509090013 | 49 | 235 | 0.0 | 7.0 | 0.00 | 0.00 | 0.00 | 53 | 998.7 |
| 20260509084513 | 49 | 150 | 2.0 | 12.0 | 0.00 | 0.00 | 0.00 | 54 | 999.0 |
| 20260509083002 | 49 | 115 | 0.0 | 9.0 | 0.00 | 0.00 | 0.00 | 52 | 999.1 |
| 20260509081558 | 49 | 191 | 0.0 | 9.0 | 0.00 | 0.00 | 0.00 | 53 | 999.4 |
| 20260509080100 | 49 | 73 | 0.0 | 8.0 | 0.00 | 0.00 | 0.00 | 52 | 999.4 |
| 20260509074550 | 48 | 80 | 0.0 | 9.0 | 0.00 | 0.00 | 0.00 | 51 | 999.5 |
| 20260509073048 | 48 | 109 | 0.0 | 10.0 | 0.00 | 0.00 | 0.00 | 51 | 999.8 |
| 20260509071524 | 46 | 107 | 0.0 | 2.0 | 0.00 | 0.00 | 0.00 | 52 | 999.9 |
| 20260509070019 | 44 | 140 | 0.0 | 5.0 | 0.00 | 0.00 | 0.00 | 51 | 1000.2 |
| 20260509064557 | 43 | 32 | 0.0 | 2.0 | 0.00 | 0.00 | 0.00 | 50 | 1000.7 |
| 20260509063102 | 43 | 61 | 0.0 | 0.0 | 0.00 | 0.00 | 0.00 | 48 | 1000.9 |
| 20260509061539 | 43 | 70 | 0.0 | 1.0 | 0.00 | 0.00 | 0.00 | 50 | 1001.2 |
| 20260509060028 | 43 | 79 | 0.0 | 0.0 | 0.00 | 0.00 | 0.00 | 50 | 1001.5 |
| 20260509054505 | 43 | 94 | 0.0 | 0.0 | 0.00 | 0.00 | 0.00 | 52 | 1001.7 |
| 20260509053002 | 44 | 225 | 0.0 | 0.0 | 0.00 | 0.00 | 0.00 | 53 | 1001.9 |
| 20260509051545 | 44 | 225 | 0.0 | 0.0 | 0.00 | 0.00 | 0.00 | 53 | 1002.2 |
| 20260509050041 | 45 | 223 | 0.0 | 0.0 | 0.00 | 0.00 | 0.00 | 54 | 1002.3 |
| 20260509044536 | 45 | 225 | 0.0 | 0.0 | 0.00 | 0.00 | 0.00 | 54 | 1002.5 |
| 20260509043032 | 45 | 162 | 0.0 | 2.0 | 0.00 | 0.00 | 0.00 | 54 | 1002.8 |
| 20260509041536 | 45 | 123 | 0.0 | 0.0 | 0.00 | 0.00 | 0.00 | 54 | 1003.0 |
| 20260509040023 | 45 | 271 | 0.0 | 0.0 | 0.00 | 0.00 | 0.00 | 54 | 1003.3 |
| 20260509034518 | 45 | 16 | 0.0 | 2.0 | 0.00 | 0.00 | 0.00 | 54 | 1003.4 |
| 20260509033014 | 45 | 130 | 0.0 | 1.0 | 0.00 | 0.00 | 0.00 | 54 | 1003.7 |
| 20260509031606 | 46 | 105 | 0.0 | 1.0 | 0.00 | 0.00 | 0.00 | 55 | 1004.0 |
| 20260509030054 | 46 | 106 | 0.0 | 1.0 | 0.00 | 0.00 | 0.00 | 55 | 1004.3 |
| 20260509024549 | 46 | 78 | 0.0 | 0.0 | 0.00 | 0.00 | 0.00 | 55 | 1004.4 |
| 20260509023048 | 46 | 72 | 0.0 | 0.0 | 0.00 | 0.00 | 0.00 | 55 | 1004.4 |
| 20260509021541 | 47 | 132 | 0.0 | 0.0 | 0.00 | 0.00 | 0.00 | 54 | 1004.5 |
| 20260509020045 | 47 | 101 | 0.0 | 1.0 | 0.00 | 0.00 | 0.00 | 53 | 1004.5 |
| 20260509014532 | 48 | 144 | 0.0 | 0.0 | 0.00 | 0.00 | 0.00 | 52 | 1004.5 |
| 20260509013029 | 47 | 132 | 0.0 | 5.0 | 0.00 | 0.00 | 0.00 | 51 | 1004.4 |
| 20260509011506 | 48 | 173 | 0.0 | 0.0 | 0.00 | 0.00 | 0.00 | 53 | 1004.4 |
| 20260509010001 | 48 | 113 | 0.0 | 1.0 | 0.00 | 0.00 | 0.00 | 51 | 1004.4 |
| 20260509004542 | 49 | 222 | 0.0 | 0.0 | 0.00 | 0.00 | 0.00 | 51 | 1004.5 |
| 20260509003038 | 49 | 222 | 0.0 | 0.0 | 0.00 | 0.00 | 0.00 | 53 | 1004.7 |